TimeCST,TemperatureF,Dew PointF,Humidity,Sea Level PressureIn,VisibilityMPH,Wind Direction,Wind SpeedMPH,Gust SpeedMPH,PrecipitationIn,Events,Conditions,WindDirDegrees,DateUTC
12:53 AM,19.0,12.0,74,30.45,10.0,West,3.5,-,N/A,,Clear,280,2012-11-24 06:53:00
1:53 AM,21.0,12.0,68,30.43,10.0,Calm,Calm,-,N/A,,Clear,0,2012-11-24 07:53:00
2:53 AM,19.0,10.9,71,30.43,10.0,Calm,Calm,-,N/A,,Clear,0,2012-11-24 08:53:00
3:53 AM,19.9,15.1,81,30.41,10.0,SSE,3.5,-,N/A,,Clear,160,2012-11-24 09:53:00
4:53 AM,19.9,14.0,78,30.39,10.0,Calm,Calm,-,N/A,,Clear,0,2012-11-24 10:53:00
5:53 AM,19.9,15.1,81,30.38,10.0,Calm,Calm,-,N/A,,Clear,0,2012-11-24 11:53:00
6:53 AM,17.1,12.0,81,30.38,10.0,SW,3.5,-,N/A,,Clear,220,2012-11-24 12:53:00
7:53 AM,21.9,16.0,78,30.36,10.0,South,4.6,-,N/A,,Clear,170,2012-11-24 13:53:00
8:53 AM,26.1,16.0,66,30.35,10.0,SSE,5.8,-,N/A,,Clear,160,2012-11-24 14:53:00
9:53 AM,30.0,15.1,54,30.33,10.0,SSE,9.2,-,N/A,,Clear,160,2012-11-24 15:53:00
10:53 AM,34.0,14.0,44,30.28,10.0,SSE,12.7,-,N/A,,Clear,160,2012-11-24 16:53:00
11:53 AM,39.0,15.1,38,30.22,10.0,SSE,12.7,-,N/A,,Clear,160,2012-11-24 17:53:00
12:53 PM,42.1,16.0,35,30.15,10.0,SSE,13.8,-,N/A,,Clear,160,2012-11-24 18:53:00
1:53 PM,44.1,16.0,32,30.09,10.0,SSE,17.3,-,N/A,,Clear,150,2012-11-24 19:53:00
2:53 PM,45.0,17.1,33,30.04,10.0,South,17.3,-,N/A,,Clear,170,2012-11-24 20:53:00
3:53 PM,46.0,18.0,33,30.02,10.0,South,15.0,-,N/A,,Clear,180,2012-11-24 21:53:00
4:53 PM,44.1,19.0,37,30.00,10.0,South,12.7,-,N/A,,Clear,180,2012-11-24 22:53:00
5:53 PM,43.0,19.9,40,29.98,10.0,SSE,11.5,-,N/A,,Clear,160,2012-11-24 23:53:00
6:53 PM,42.1,21.0,43,29.98,10.0,SSE,9.2,-,N/A,,Clear,160,2012-11-25 00:53:00
7:53 PM,42.1,21.9,45,29.95,10.0,South,10.4,-,N/A,,Clear,170,2012-11-25 01:53:00
8:53 PM,43.0,23.0,45,29.93,10.0,South,9.2,-,N/A,,Scattered Clouds,170,2012-11-25 02:53:00
9:53 PM,43.0,23.0,45,29.92,10.0,SSW,8.1,-,N/A,,Clear,200,2012-11-25 03:53:00
10:53 PM,41.0,23.0,49,29.91,10.0,South,4.6,-,N/A,,Clear,180,2012-11-25 04:53:00
11:53 PM,39.9,24.1,53,29.90,10.0,SSW,4.6,-,N/A,,Clear,210,2012-11-25 05:53:00